FW8630 Weather Reports


time (UTC)temp
C
wind
direction
speed
KPH
gust
KPH
rain 1hr
cm
rain 24hr
cm
rain mn
cm
humidity
%
barometer
mb
20260506004511 0 93 3.2 4.8 0.00 0.00 0.00 89 1013.7
20260506003009 0 134 0.0 3.2 0.00 0.00 0.00 89 1013.9
20260506001507 0 134 1.6 4.8 0.00 0.00 0.00 90 1013.9
20260506000005 0 144 1.6 4.8 0.00 0.00 0.00 90 1013.7
20260505234504 0 177 0.0 3.2 0.00 0.00 0.00 90 1013.8
20260505233102 0 184 0.0 0.0 0.00 0.00 0.00 91 1013.9
20260505231558 0 190 0.0 0.0 0.00 0.00 0.00 91 1014.0
20260505230105 0 203 0.0 0.0 0.00 0.00 0.00 91 1013.9
20260505224554 1 203 0.0 0.0 0.00 0.00 0.00 92 1014.0
20260505223102 1 203 0.0 0.0 0.00 0.00 0.00 92 1013.9
20260505221550 1 206 0.0 0.0 0.00 0.00 0.00 92 1014.0
20260505220046 1 206 0.0 0.0 0.00 0.00 0.00 92 1013.8
20260505214543 2 206 0.0 0.0 0.00 0.00 0.00 92 1013.7
20260505213052 2 206 0.0 0.0 0.00 0.00 0.00 93 1013.6
20260505211538 2 206 1.6 3.2 0.00 0.00 0.00 94 1013.5
20260505210034 3 206 1.6 3.2 0.00 0.00 0.00 96 1013.4
20260505204531 3 207 0.0 0.0 0.00 0.00 0.00 96 1013.4
20260505203040 4 207 0.0 0.0 0.00 0.00 0.00 95 1013.3
20260505201525 4 207 0.0 0.0 0.00 0.00 0.00 96 1013.0
20260505200031 5 207 0.0 0.0 0.00 0.00 0.00 96 1012.8
20260505194519 5 207 0.0 0.0 0.00 0.00 0.00 97 1012.7
20260505193018 6 207 0.0 0.0 0.00 0.00 0.00 97 1012.6
20260505191516 6 207 0.0 3.2 0.00 0.00 0.00 97 1012.6
20260505190015 7 207 1.6 3.2 0.00 0.00 0.00 96 1012.4
20260505184519 7 207 0.0 3.2 0.00 0.00 0.00 96 1012.3
20260505183013 8 207 1.6 4.8 0.00 0.00 0.00 96 1012.1
20260505181512 8 207 1.6 4.8 0.00 0.00 0.00 96 1011.9
20260505180011 9 207 3.2 6.4 0.00 0.00 0.00 95 1011.8
20260505174515 10 243 3.2 6.4 0.00 0.00 0.00 94 1011.8
20260505173030 10 278 1.6 6.4 0.00 0.00 0.00 93 1011.7
20260505171509 10 229 4.8 6.4 0.00 0.00 0.00 92 1011.7
20260505170013 10 221 3.2 8.0 0.00 0.00 0.00 92 1011.6
20260505164524 10 229 4.8 11.3 0.00 0.00 0.00 90 1011.6
20260505163013 10 236 4.8 9.7 0.00 0.00 0.00 91 1011.5
20260505161508 11 221 4.8 12.9 0.00 0.00 0.00 89 1011.5
20260505153010 11 243 8.0 14.5 0.00 0.00 0.00 88 1011.6
20260505151505 11 238 9.7 16.1 0.00 0.00 0.00 89 1011.7
20260505130104 11 238 8.0 14.5 0.00 0.00 0.00 91 1011.8
20260505124559 11 242 8.0 14.5 0.00 0.00 0.00 90 1011.7
20260505123106 11 232 8.0 14.5 0.00 0.00 0.00 89 1011.6
20260505121556 11 239 8.0 14.5 0.00 0.00 0.00 89 1011.6
20260505120057 11 222 8.0 17.7 0.00 0.00 0.00 89 1011.4
20260505114554 11 225 9.7 16.1 0.00 0.00 0.00 87 1011.5
20260505113058 11 225 8.0 14.5 0.00 0.00 0.00 87 1011.4
20260505111555 11 234 4.8 11.3 0.00 0.00 0.00 89 1011.4
20260505101537 10 236 6.4 12.9 0.00 0.00 0.00 88 1011.1
20260505100042 10 229 8.0 16.1 0.00 0.00 0.00 90 1011.1
20260505094533 10 236 8.0 14.5 0.00 0.00 0.00 91 1011.1
20260505093133 10 244 6.4 17.7 0.00 0.00 0.00 91 1011.1
20260505091534 10 276 6.4 16.1 0.00 0.00 0.00 88 1011.0
20260505090044 9 271 8.0 16.1 0.00 0.00 0.00 90 1010.9
20260505084534 9 254 8.0 20.9 0.00 0.00 0.00 90 1010.8
20260505083034 9 235 6.4 16.1 0.00 0.00 0.00 89 1010.8
20260505081622 9 230 9.7 17.7 0.00 0.00 0.00 91 1010.7
20260505080035 9 221 8.0 17.7 0.00 0.00 0.00 92 1010.6
20260505074516 8 232 8.0 17.7 0.00 0.00 0.00 91 1010.4
20260505073016 8 229 9.7 16.1 0.00 0.00 0.00 91 1010.4
20260505071523 8 247 6.4 14.5 0.00 0.00 0.00 91 1010.4
20260505070011 8 272 8.0 20.9 0.00 0.00 0.00 92 1010.3
20260505064508 8 232 6.4 16.1 0.00 0.00 0.00 91 1010.3
20260505063007 8 227 8.0 16.1 0.00 0.00 0.00 92 1010.3
20260505061508 8 243 8.0 14.5 0.00 0.00 0.00 93 1010.3
20260505060058 8 233 8.0 19.3 0.00 0.00 0.00 94 1010.3
20260505054604 8 236 8.0 16.1 0.00 0.00 0.00 94 1010.3
20260505053050 7 214 9.7 16.1 0.00 0.00 0.00 93 1010.1
20260505051545 7 212 6.4 12.9 0.00 0.00 0.00 94 1010.0
20260505041529 7 223 6.4 9.7 0.00 0.00 0.00 94 1009.6
20260505033031 7 235 4.8 12.9 0.00 0.00 0.00 95 1009.3
20260505031519 6 223 3.2 8.0 0.00 0.00 0.00 96 1009.2
20260505023011 6 197 3.2 6.4 0.00 0.00 0.00 94 1009.1
20260505021525 6 197 3.2 6.4 0.00 0.00 0.00 94 1009.1
20260505020008 6 196 3.2 14.5 0.00 0.00 0.00 94 1008.9
20260505014508 6 235 4.8 8.0 0.00 0.00 0.00 96 1008.9
20260505013007 5 168 1.6 8.0 0.00 0.00 0.00 96 1009.0
20260505011505 5 175 1.6 6.4 0.00 0.00 0.00 96 1009.0
20260505010003 6 217 1.6 3.2 0.00 0.00 0.00 95 1008.9